Time,TemperatureF,DewpointF,PressureIn,WindDirection,WindDirectionDegrees,WindSpeedMPH,WindSpeedGustMPH,Humidity,HourlyPrecipIn,Conditions,Clouds,dailyrainin,SolarRadiationWatts/m^2,SoftwareType,DateUTC
2013-08-10 00:00:00,61.0,60.0,-100.00,NW,324,0.0,2.0,95,-99.99,,,0.00,0.000000,,2013-08-10 07:00:00,
2013-08-10 00:43:00,61.0,60.0,-100.00,NW,324,0.0,2.0,95,-99.99,,,0.00,0.000000,,2013-08-10 07:43:00,
2013-08-10 00:52:00,61.0,60.0,-100.00,NW,324,0.0,2.0,95,-99.99,,,0.00,0.000000,,2013-08-10 07:52:00,
2013-08-10 01:00:00,60.0,59.0,-100.00,South,186,1.0,4.0,96,-99.99,,,0.00,0.000000,,2013-08-10 08:00:00,
2013-08-10 01:43:00,60.0,59.0,-100.00,South,186,1.0,4.0,96,-99.99,,,0.00,0.000000,,2013-08-10 08:43:00,
2013-08-10 01:53:00,60.0,59.0,-100.00,South,186,1.0,4.0,96,-99.99,,,0.00,0.000000,,2013-08-10 08:53:00,
2013-08-10 02:00:00,59.0,59.0,-100.00,South,190,1.0,4.0,97,-99.99,,,0.00,0.000000,,2013-08-10 09:00:00,
2013-08-10 02:43:00,59.0,59.0,-100.00,South,190,1.0,4.0,97,-99.99,,,0.00,0.000000,,2013-08-10 09:43:00,
2013-08-10 02:52:00,59.0,59.0,-100.00,South,190,1.0,4.0,97,-99.99,,,0.00,0.000000,,2013-08-10 09:52:00,
2013-08-10 03:00:00,58.0,57.0,-100.00,SW,236,1.0,3.0,97,-99.99,,,0.00,0.000000,,2013-08-10 10:00:00,
2013-08-10 03:44:00,58.0,57.0,-100.00,SW,236,1.0,3.0,97,-99.99,,,0.00,0.000000,,2013-08-10 10:44:00,
2013-08-10 03:53:00,58.0,57.0,-100.00,SW,236,1.0,3.0,97,-99.99,,,0.00,0.000000,,2013-08-10 10:53:00,
2013-08-10 04:00:00,58.0,57.0,-100.00,SSW,203,0.0,2.0,96,-99.99,,,0.00,0.000000,,2013-08-10 11:00:00,
2013-08-10 04:43:00,58.0,57.0,-100.00,SSW,203,0.0,2.0,96,-99.99,,,0.00,0.000000,,2013-08-10 11:43:00,
2013-08-10 04:53:00,58.0,57.0,-100.00,SSW,203,0.0,2.0,96,-99.99,,,0.00,0.000000,,2013-08-10 11:53:00,
2013-08-10 05:00:00,58.0,56.0,-100.00,NNW,333,1.0,3.0,94,-99.99,,,0.00,0.000000,,2013-08-10 12:00:00,
2013-08-10 05:42:00,58.0,56.0,-100.00,NNW,333,1.0,3.0,94,-99.99,,,0.00,0.000000,,2013-08-10 12:42:00,
2013-08-10 05:52:00,58.0,56.0,-100.00,NNW,333,1.0,3.0,94,-99.99,,,0.00,0.000000,,2013-08-10 12:52:00,
2013-08-10 06:00:00,58.0,56.0,-100.00,NW,311,1.0,4.0,94,-99.99,,,0.00,1.280000,,2013-08-10 13:00:00,
2013-08-10 06:43:00,58.0,56.0,-100.00,NW,311,1.0,4.0,94,-99.99,,,0.00,1.280000,,2013-08-10 13:43:00,
2013-08-10 06:52:00,58.0,56.0,-100.00,NW,311,1.0,4.0,94,-99.99,,,0.00,1.280000,,2013-08-10 13:52:00,
2013-08-10 07:00:00,58.0,56.0,-100.00,West,265,1.0,2.0,94,-99.99,,,0.00,39.750000,,2013-08-10 14:00:00,
2013-08-10 07:42:00,58.0,56.0,-100.00,West,265,1.0,2.0,94,-99.99,,,0.00,39.750000,,2013-08-10 14:42:00,
2013-08-10 07:53:00,58.0,56.0,-100.00,West,265,1.0,2.0,94,-99.99,,,0.00,39.750000,,2013-08-10 14:53:00,
2013-08-10 08:00:00,62.0,59.0,-100.00,South,178,0.0,2.0,89,-99.99,,,0.00,238.250000,,2013-08-10 15:00:00,
2013-08-10 08:43:00,62.0,59.0,-100.00,South,178,0.0,2.0,89,-99.99,,,0.00,238.250000,,2013-08-10 15:43:00,
2013-08-10 08:52:00,62.0,59.0,-100.00,South,178,0.0,2.0,89,-99.99,,,0.00,238.250000,,2013-08-10 15:52:00,
2013-08-10 09:00:00,69.0,61.0,-100.00,NE,53,0.0,2.0,74,-99.99,,,0.00,434.200012,,2013-08-10 16:00:00,
2013-08-10 09:43:00,69.0,61.0,-100.00,NE,53,0.0,2.0,74,-99.99,,,0.00,434.200012,,2013-08-10 16:43:00,
2013-08-10 09:53:00,69.0,61.0,-100.00,NE,53,0.0,2.0,74,-99.99,,,0.00,434.200012,,2013-08-10 16:53:00,
2013-08-10 10:00:00,72.0,62.0,-100.00,North,1,3.0,7.0,71,-99.99,,,0.00,592.609985,,2013-08-10 17:00:00,
2013-08-10 10:43:00,72.0,62.0,-100.00,North,1,3.0,7.0,71,-99.99,,,0.00,592.609985,,2013-08-10 17:43:00,
2013-08-10 10:52:00,72.0,62.0,-100.00,North,1,3.0,7.0,71,-99.99,,,0.00,592.609985,,2013-08-10 17:52:00,
2013-08-10 13:00:00,76.0,59.0,-100.00,SSW,203,4.0,9.0,55,-99.99,,,0.00,261.380005,,2013-08-10 20:00:00,
2013-08-10 13:43:00,76.0,59.0,-100.00,SSW,203,4.0,9.0,55,-99.99,,,0.00,261.380005,,2013-08-10 20:43:00,
2013-08-10 13:53:00,76.0,59.0,-100.00,SSW,203,4.0,9.0,55,-99.99,,,0.00,261.380005,,2013-08-10 20:53:00,
2013-08-10 14:00:00,81.0,63.0,-100.00,ENE,70,2.0,5.0,55,-99.99,,,-99.99,807.030029,,2013-08-10 21:00:00,
2013-08-10 14:42:00,81.0,63.0,-100.00,ENE,70,2.0,5.0,55,-99.99,,,-99.99,807.030029,,2013-08-10 21:42:00,
2013-08-10 14:52:00,81.0,63.0,-100.00,ENE,70,2.0,5.0,55,-99.99,,,-99.99,807.030029,,2013-08-10 21:52:00,
2013-08-10 15:00:00,78.0,59.0,-100.00,SSW,203,4.0,11.0,50,-99.99,,,0.00,344.820007,,2013-08-10 22:00:00,
2013-08-10 15:43:00,78.0,59.0,-100.00,SSW,203,4.0,11.0,50,-99.99,,,0.00,344.820007,,2013-08-10 22:43:00,
2013-08-10 15:52:00,78.0,59.0,-100.00,SSW,203,4.0,11.0,50,-99.99,,,0.00,344.820007,,2013-08-10 22:52:00,
2013-08-10 16:00:00,75.0,59.0,-100.00,SSW,201,7.0,17.0,56,-99.99,,,0.00,194.199997,,2013-08-10 23:00:00,
2013-08-10 16:43:00,75.0,59.0,-100.00,SSW,201,7.0,17.0,56,-99.99,,,0.00,194.199997,,2013-08-10 23:43:00,
2013-08-10 16:53:00,75.0,59.0,-100.00,SSW,201,7.0,17.0,56,-99.99,,,0.00,194.199997,,2013-08-10 23:53:00,
2013-08-10 17:00:00,73.0,58.0,-100.00,SSW,199,7.0,16.0,61,-99.99,,,0.00,43.000000,,2013-08-11 00:00:00,
2013-08-10 17:42:00,73.0,58.0,-100.00,SSW,199,7.0,16.0,61,-99.99,,,0.00,43.000000,,2013-08-11 00:42:00,
2013-08-10 17:52:00,73.0,58.0,-100.00,SSW,199,7.0,16.0,61,-99.99,,,0.00,43.000000,,2013-08-11 00:52:00,
2013-08-10 18:00:00,72.0,58.0,-100.00,SW,222,5.0,21.0,61,-99.99,,,0.00,189.440002,,2013-08-11 01:00:00,
2013-08-10 18:43:00,72.0,58.0,-100.00,SW,222,5.0,21.0,61,-99.99,,,0.00,189.440002,,2013-08-11 01:43:00,
2013-08-10 18:53:00,72.0,58.0,-100.00,SW,222,5.0,21.0,61,-99.99,,,0.00,189.440002,,2013-08-11 01:53:00,
2013-08-10 19:43:00,72.0,60.0,-100.00,South,191,4.0,11.0,66,-99.99,,,0.00,173.399994,,2013-08-11 02:43:00,
2013-08-10 19:57:00,72.0,60.0,-100.00,South,191,4.0,11.0,66,-99.99,,,0.00,173.399994,,2013-08-11 02:57:00,
2013-08-10 20:00:00,66.0,60.0,-100.00,SSW,192,2.0,7.0,81,-99.99,,,0.00,6.390000,,2013-08-11 03:00:00,
2013-08-10 20:43:00,66.0,60.0,-100.00,SSW,192,2.0,7.0,81,-99.99,,,0.00,6.390000,,2013-08-11 03:43:00,
2013-08-10 20:55:00,66.0,60.0,-100.00,SSW,192,2.0,7.0,81,-99.99,,,0.00,6.390000,,2013-08-11 03:55:00,
2013-08-10 21:00:00,65.0,61.0,-100.00,SSE,160,4.0,10.0,85,-99.99,,,0.00,0.000000,,2013-08-11 04:00:00,
2013-08-10 21:42:00,65.0,61.0,-100.00,SSE,160,4.0,10.0,85,-99.99,,,0.00,0.000000,,2013-08-11 04:42:00,
2013-08-10 21:53:00,65.0,61.0,-100.00,SSE,160,4.0,10.0,85,-99.99,,,0.00,0.000000,,2013-08-11 04:53:00,
2013-08-10 22:00:00,66.0,63.0,-100.00,SSW,192,3.0,16.0,90,-99.99,,,0.00,0.000000,,2013-08-11 05:00:00,
2013-08-10 22:44:00,66.0,63.0,-100.00,SSW,192,3.0,16.0,90,-99.99,,,0.00,0.000000,,2013-08-11 05:44:00,
2013-08-10 22:55:00,66.0,63.0,-100.00,SSW,192,3.0,16.0,90,-99.99,,,0.00,0.000000,,2013-08-11 05:55:00,
2013-08-10 23:00:00,65.0,60.0,-100.00,South,188,2.0,10.0,84,-99.99,,,0.00,0.000000,,2013-08-11 06:00:00,
2013-08-10 23:47:00,65.0,60.0,-100.00,South,188,2.0,10.0,84,-99.99,,,0.00,0.000000,,2013-08-11 06:47:00,
2013-08-10 23:56:00,65.0,60.0,-100.00,South,188,2.0,10.0,84,-99.99,,,0.00,0.000000,,2013-08-11 06:56:00,